Data supplied by UK-AIR on 16/3/2024
All Data GMT hour ending 
Status: R =Ratified P=Provisional,P*=As supplied
,,Saltash Callington Road,,,,,,,,,,,,,,,,,,,,,,,
Date,time,"PM<sub>10</sub> particulate matter (Hourly measured)",status,unit,"PM<sub>2.5</sub> particulate matter (Hourly measured)",status,unit
 
01-01-2023,01:00,27.054,R,ugm-3 (Ref.eq),10.500,R,ugm-3 (BAM)
01-01-2023,02:00,31.885,R,ugm-3 (Ref.eq),13.500,R,ugm-3 (BAM)
01-01-2023,03:00,27.054,R,ugm-3 (Ref.eq),10.500,R,ugm-3 (BAM)
01-01-2023,04:00,29.952,R,ugm-3 (Ref.eq),10.500,R,ugm-3 (BAM)
01-01-2023,05:00,26.087,R,ugm-3 (Ref.eq),8.500,R,ugm-3 (BAM)
01-01-2023,06:00,30.918,R,ugm-3 (Ref.eq),9.500,R,ugm-3 (BAM)
01-01-2023,07:00,23.189,R,ugm-3 (Ref.eq),11.500,R,ugm-3 (BAM)
01-01-2023,08:00,24.155,R,ugm-3 (Ref.eq),9.500,R,ugm-3 (BAM)
01-01-2023,09:00,31.885,R,ugm-3 (Ref.eq),12.500,R,ugm-3 (BAM)
01-01-2023,10:00,31.885,R,ugm-3 (Ref.eq),13.500,R,ugm-3 (BAM)
01-01-2023,11:00,32.851,R,ugm-3 (Ref.eq),14.500,R,ugm-3 (BAM)
01-01-2023,12:00,34.783,R,ugm-3 (Ref.eq),12.500,R,ugm-3 (BAM)
01-01-2023,13:00,35.749,R,ugm-3 (Ref.eq),11.500,R,ugm-3 (BAM)
01-01-2023,14:00,24.155,R,ugm-3 (Ref.eq),9.500,R,ugm-3 (BAM)
01-01-2023,15:00,13.527,R,ugm-3 (Ref.eq),10.500,R,ugm-3 (BAM)
01-01-2023,16:00,12.561,R,ugm-3 (Ref.eq),6.500,R,ugm-3 (BAM)
01-01-2023,17:00,9.662,R,ugm-3 (Ref.eq),3.500,R,ugm-3 (BAM)
01-01-2023,18:00,12.561,R,ugm-3 (Ref.eq),5.500,R,ugm-3 (BAM)
01-01-2023,19:00,13.527,R,ugm-3 (Ref.eq),7.500,R,ugm-3 (BAM)
01-01-2023,20:00,22.223,R,ugm-3 (Ref.eq),6.500,R,ugm-3 (BAM)
01-01-2023,21:00,15.459,R,ugm-3 (Ref.eq),8.500,R,ugm-3 (BAM)
01-01-2023,22:00,14.493,R,ugm-3 (Ref.eq),10.500,R,ugm-3 (BAM)
01-01-2023,23:00,16.425,R,ugm-3 (Ref.eq),6.500,R,ugm-3 (BAM)
01-01-2023,24:00,11.594,R,ugm-3 (Ref.eq),5.500,R,ugm-3 (BAM)
02-01-2023,01:00,13.527,R,ugm-3 (Ref.eq),9.500,R,ugm-3 (BAM)
02-01-2023,02:00,12.561,R,ugm-3 (Ref.eq),5.500,R,ugm-3 (BAM)
02-01-2023,03:00,8.696,R,ugm-3 (Ref.eq),2.500,R,ugm-3 (BAM)
02-01-2023,04:00,7.730,R,ugm-3 (Ref.eq),3.500,R,ugm-3 (BAM)
02-01-2023,05:00,5.797,R,ugm-3 (Ref.eq),1.500,R,ugm-3 (BAM)
02-01-2023,06:00,5.797,R,ugm-3 (Ref.eq),0.500,R,ugm-3 (BAM)
02-01-2023,07:00,6.763,R,ugm-3 (Ref.eq),4.500,R,ugm-3 (BAM)
02-01-2023,08:00,6.763,R,ugm-3 (Ref.eq),3.500,R,ugm-3 (BAM)
02-01-2023,09:00,6.763,R,ugm-3 (Ref.eq),2.500,R,ugm-3 (BAM)
02-01-2023,10:00,5.797,R,ugm-3 (Ref.eq),4.500,R,ugm-3 (BAM)
02-01-2023,11:00,6.763,R,ugm-3 (Ref.eq),8.500,R,ugm-3 (BAM)
02-01-2023,12:00,11.594,R,ugm-3 (Ref.eq),7.500,R,ugm-3 (BAM)
02-01-2023,13:00,8.696,R,ugm-3 (Ref.eq),5.500,R,ugm-3 (BAM)
02-01-2023,14:00,14.493,R,ugm-3 (Ref.eq),4.500,R,ugm-3 (BAM)
02-01-2023,15:00,17.392,R,ugm-3 (Ref.eq),2.500,R,ugm-3 (BAM)
02-01-2023,16:00,7.730,R,ugm-3 (Ref.eq),4.500,R,ugm-3 (BAM)
02-01-2023,17:00,21.256,R,ugm-3 (Ref.eq),5.500,R,ugm-3 (BAM)
02-01-2023,18:00,28.020,R,ugm-3 (Ref.eq),17.500,R,ugm-3 (BAM)
02-01-2023,19:00,31.885,R,ugm-3 (Ref.eq),28.500,R,ugm-3 (BAM)
02-01-2023,20:00,25.121,R,ugm-3 (Ref.eq),14.500,R,ugm-3 (BAM)
02-01-2023,21:00,15.459,R,ugm-3 (Ref.eq),13.500,R,ugm-3 (BAM)
02-01-2023,22:00,15.459,R,ugm-3 (Ref.eq),14.500,R,ugm-3 (BAM)
02-01-2023,23:00,12.561,R,ugm-3 (Ref.eq),10.500,R,ugm-3 (BAM)
02-01-2023,24:00,8.696,R,ugm-3 (Ref.eq),5.500,R,ugm-3 (BAM)
03-01-2023,01:00,5.797,R,ugm-3 (Ref.eq),1.500,R,ugm-3 (BAM)
03-01-2023,02:00,8.696,R,ugm-3 (Ref.eq),3.500,R,ugm-3 (BAM)
03-01-2023,03:00,17.392,R,ugm-3 (Ref.eq),4.500,R,ugm-3 (BAM)
03-01-2023,04:00,19.324,R,ugm-3 (Ref.eq),5.500,R,ugm-3 (BAM)
03-01-2023,05:00,24.155,R,ugm-3 (Ref.eq),6.500,R,ugm-3 (BAM)
03-01-2023,06:00,15.459,R,ugm-3 (Ref.eq),7.500,R,ugm-3 (BAM)
03-01-2023,07:00,16.425,R,ugm-3 (Ref.eq),5.500,R,ugm-3 (BAM)
03-01-2023,08:00,13.527,R,ugm-3 (Ref.eq),5.500,R,ugm-3 (BAM)
03-01-2023,09:00,21.256,R,ugm-3 (Ref.eq),7.500,R,ugm-3 (BAM)
03-01-2023,10:00,20.290,R,ugm-3 (Ref.eq),8.500,R,ugm-3 (BAM)
03-01-2023,11:00,27.054,R,ugm-3 (Ref.eq),8.500,R,ugm-3 (BAM)
03-01-2023,12:00,29.952,R,ugm-3 (Ref.eq),15.500,R,ugm-3 (BAM)
03-01-2023,13:00,23.189,R,ugm-3 (Ref.eq),10.500,R,ugm-3 (BAM)
03-01-2023,14:00,20.290,R,ugm-3 (Ref.eq),5.500,R,ugm-3 (BAM)
03-01-2023,15:00,12.561,R,ugm-3 (Ref.eq),7.500,R,ugm-3 (BAM)
03-01-2023,16:00,13.527,R,ugm-3 (Ref.eq),4.500,R,ugm-3 (BAM)
03-01-2023,17:00,12.561,R,ugm-3 (Ref.eq),3.500,R,ugm-3 (BAM)
03-01-2023,18:00,22.223,R,ugm-3 (Ref.eq),8.500,R,ugm-3 (BAM)
03-01-2023,19:00,23.189,R,ugm-3 (Ref.eq),7.500,R,ugm-3 (BAM)
03-01-2023,20:00,31.885,R,ugm-3 (Ref.eq),6.500,R,ugm-3 (BAM)
03-01-2023,21:00,23.189,R,ugm-3 (Ref.eq),9.500,R,ugm-3 (BAM)
03-01-2023,22:00,21.256,R,ugm-3 (Ref.eq),11.500,R,ugm-3 (BAM)
03-01-2023,23:00,26.087,R,ugm-3 (Ref.eq),8.500,R,ugm-3 (BAM)
03-01-2023,24:00,23.189,R,ugm-3 (Ref.eq),6.500,R,ugm-3 (BAM)
04-01-2023,01:00,28.020,R,ugm-3 (Ref.eq),11.500,R,ugm-3 (BAM)
04-01-2023,02:00,30.918,R,ugm-3 (Ref.eq),10.500,R,ugm-3 (BAM)
04-01-2023,03:00,26.087,R,ugm-3 (Ref.eq),9.500,R,ugm-3 (BAM)
04-01-2023,04:00,12.561,R,ugm-3 (Ref.eq),8.500,R,ugm-3 (BAM)
04-01-2023,05:00,9.662,R,ugm-3 (Ref.eq),5.500,R,ugm-3 (BAM)
04-01-2023,06:00,6.763,R,ugm-3 (Ref.eq),6.500,R,ugm-3 (BAM)
04-01-2023,07:00,8.696,R,ugm-3 (Ref.eq),5.500,R,ugm-3 (BAM)
04-01-2023,08:00,14.493,R,ugm-3 (Ref.eq),5.500,R,ugm-3 (BAM)
04-01-2023,09:00,23.189,R,ugm-3 (Ref.eq),11.500,R,ugm-3 (BAM)
04-01-2023,10:00,25.121,R,ugm-3 (Ref.eq),11.500,R,ugm-3 (BAM)
04-01-2023,11:00,26.087,R,ugm-3 (Ref.eq),11.500,R,ugm-3 (BAM)
04-01-2023,12:00,24.155,R,ugm-3 (Ref.eq),12.500,R,ugm-3 (BAM)
04-01-2023,13:00,28.020,R,ugm-3 (Ref.eq),12.500,R,ugm-3 (BAM)
04-01-2023,14:00,20.290,R,ugm-3 (Ref.eq),14.500,R,ugm-3 (BAM)
04-01-2023,15:00,27.054,R,ugm-3 (Ref.eq),12.500,R,ugm-3 (BAM)
04-01-2023,16:00,25.121,R,ugm-3 (Ref.eq),13.500,R,ugm-3 (BAM)
04-01-2023,17:00,29.952,R,ugm-3 (Ref.eq),15.500,R,ugm-3 (BAM)
04-01-2023,18:00,28.986,R,ugm-3 (Ref.eq),13.500,R,ugm-3 (BAM)
04-01-2023,19:00,26.087,R,ugm-3 (Ref.eq),14.500,R,ugm-3 (BAM)
04-01-2023,20:00,28.020,R,ugm-3 (Ref.eq),17.500,R,ugm-3 (BAM)
04-01-2023,21:00,28.020,R,ugm-3 (Ref.eq),14.500,R,ugm-3 (BAM)
04-01-2023,22:00,28.986,R,ugm-3 (Ref.eq),11.500,R,ugm-3 (BAM)
04-01-2023,23:00,24.155,R,ugm-3 (Ref.eq),10.500,R,ugm-3 (BAM)
04-01-2023,24:00,20.290,R,ugm-3 (Ref.eq),11.500,R,ugm-3 (BAM)
05-01-2023,01:00,24.155,R,ugm-3 (Ref.eq),12.500,R,ugm-3 (BAM)
05-01-2023,02:00,21.256,R,ugm-3 (Ref.eq),9.500,R,ugm-3 (BAM)
05-01-2023,03:00,13.527,R,ugm-3 (Ref.eq),7.500,R,ugm-3 (BAM)
05-01-2023,04:00,6.763,R,ugm-3 (Ref.eq),5.500,R,ugm-3 (BAM)
05-01-2023,05:00,2.899,R,ugm-3 (Ref.eq),3.500,R,ugm-3 (BAM)
05-01-2023,06:00,9.662,R,ugm-3 (Ref.eq),3.500,R,ugm-3 (BAM)
05-01-2023,07:00,16.425,R,ugm-3 (Ref.eq),4.500,R,ugm-3 (BAM)
05-01-2023,08:00,21.256,R,ugm-3 (Ref.eq),7.500,R,ugm-3 (BAM)
05-01-2023,09:00,29.952,R,ugm-3 (Ref.eq),9.500,R,ugm-3 (BAM)
05-01-2023,10:00,30.918,R,ugm-3 (Ref.eq),7.500,R,ugm-3 (BAM)
05-01-2023,11:00,19.324,R,ugm-3 (Ref.eq),6.500,R,ugm-3 (BAM)
05-01-2023,12:00,7.730,R,ugm-3 (Ref.eq),6.500,R,ugm-3 (BAM)
05-01-2023,13:00,10.628,R,ugm-3 (Ref.eq),5.500,R,ugm-3 (BAM)
05-01-2023,14:00,16.425,R,ugm-3 (Ref.eq),6.500,R,ugm-3 (BAM)
05-01-2023,15:00,22.223,R,ugm-3 (Ref.eq),9.500,R,ugm-3 (BAM)
05-01-2023,16:00,20.290,R,ugm-3 (Ref.eq),9.500,R,ugm-3 (BAM)
05-01-2023,17:00,23.189,R,ugm-3 (Ref.eq),10.500,R,ugm-3 (BAM)
05-01-2023,18:00,15.459,R,ugm-3 (Ref.eq),7.500,R,ugm-3 (BAM)
05-01-2023,19:00,20.290,R,ugm-3 (Ref.eq),7.500,R,ugm-3 (BAM)
05-01-2023,20:00,24.155,R,ugm-3 (Ref.eq),8.500,R,ugm-3 (BAM)
05-01-2023,21:00,21.256,R,ugm-3 (Ref.eq),5.500,R,ugm-3 (BAM)
05-01-2023,22:00,20.290,R,ugm-3 (Ref.eq),5.500,R,ugm-3 (BAM)
05-01-2023,23:00,2.899,R,ugm-3 (Ref.eq),5.500,R,ugm-3 (BAM)
05-01-2023,24:00,3.865,R,ugm-3 (Ref.eq),5.500,R,ugm-3 (BAM)
06-01-2023,01:00,2.899,R,ugm-3 (Ref.eq),5.500,R,ugm-3 (BAM)
06-01-2023,02:00,7.730,R,ugm-3 (Ref.eq),5.500,R,ugm-3 (BAM)
06-01-2023,03:00,10.628,R,ugm-3 (Ref.eq),1.500,R,ugm-3 (BAM)
06-01-2023,04:00,8.696,R,ugm-3 (Ref.eq),2.500,R,ugm-3 (BAM)
06-01-2023,05:00,6.763,R,ugm-3 (Ref.eq),5.500,R,ugm-3 (BAM)
06-01-2023,06:00,12.561,R,ugm-3 (Ref.eq),5.500,R,ugm-3 (BAM)
06-01-2023,07:00,10.628,R,ugm-3 (Ref.eq),2.500,R,ugm-3 (BAM)
06-01-2023,08:00,11.594,R,ugm-3 (Ref.eq),2.500,R,ugm-3 (BAM)
06-01-2023,09:00,9.662,R,ugm-3 (Ref.eq),7.500,R,ugm-3 (BAM)
06-01-2023,10:00,10.628,R,ugm-3 (Ref.eq),7.500,R,ugm-3 (BAM)
06-01-2023,11:00,8.696,R,ugm-3 (Ref.eq),5.500,R,ugm-3 (BAM)
06-01-2023,12:00,8.696,R,ugm-3 (Ref.eq),2.500,R,ugm-3 (BAM)
06-01-2023,13:00,11.594,R,ugm-3 (Ref.eq),2.500,R,ugm-3 (BAM)
06-01-2023,14:00,6.763,R,ugm-3 (Ref.eq),3.500,R,ugm-3 (BAM)
06-01-2023,15:00,9.662,R,ugm-3 (Ref.eq),3.500,R,ugm-3 (BAM)
06-01-2023,16:00,20.290,R,ugm-3 (Ref.eq),7.500,R,ugm-3 (BAM)
06-01-2023,17:00,19.324,R,ugm-3 (Ref.eq),7.500,R,ugm-3 (BAM)
06-01-2023,18:00,21.256,R,ugm-3 (Ref.eq),6.500,R,ugm-3 (BAM)
06-01-2023,19:00,24.155,R,ugm-3 (Ref.eq),7.500,R,ugm-3 (BAM)
06-01-2023,20:00,26.087,R,ugm-3 (Ref.eq),9.500,R,ugm-3 (BAM)
06-01-2023,21:00,19.324,R,ugm-3 (Ref.eq),7.500,R,ugm-3 (BAM)
06-01-2023,22:00,23.189,R,ugm-3 (Ref.eq),7.500,R,ugm-3 (BAM)
06-01-2023,23:00,17.392,R,ugm-3 (Ref.eq),10.500,R,ugm-3 (BAM)
06-01-2023,24:00,18.358,R,ugm-3 (Ref.eq),8.500,R,ugm-3 (BAM)
07-01-2023,01:00,14.493,R,ugm-3 (Ref.eq),6.500,R,ugm-3 (BAM)
07-01-2023,02:00,22.223,R,ugm-3 (Ref.eq),8.500,R,ugm-3 (BAM)
07-01-2023,03:00,22.223,R,ugm-3 (Ref.eq),10.500,R,ugm-3 (BAM)
07-01-2023,04:00,20.290,R,ugm-3 (Ref.eq),9.500,R,ugm-3 (BAM)
07-01-2023,05:00,20.290,R,ugm-3 (Ref.eq),7.500,R,ugm-3 (BAM)
07-01-2023,06:00,29.952,R,ugm-3 (Ref.eq),16.500,R,ugm-3 (BAM)
07-01-2023,07:00,27.054,R,ugm-3 (Ref.eq),11.500,R,ugm-3 (BAM)
07-01-2023,08:00,22.223,R,ugm-3 (Ref.eq),9.500,R,ugm-3 (BAM)
07-01-2023,09:00,15.459,R,ugm-3 (Ref.eq),7.500,R,ugm-3 (BAM)
07-01-2023,10:00,12.561,R,ugm-3 (Ref.eq),4.500,R,ugm-3 (BAM)
07-01-2023,11:00,10.628,R,ugm-3 (Ref.eq),6.500,R,ugm-3 (BAM)
07-01-2023,12:00,20.290,R,ugm-3 (Ref.eq),5.500,R,ugm-3 (BAM)
07-01-2023,13:00,26.087,R,ugm-3 (Ref.eq),6.500,R,ugm-3 (BAM)
07-01-2023,14:00,5.797,R,ugm-3 (Ref.eq),6.500,R,ugm-3 (BAM)
07-01-2023,15:00,11.594,R,ugm-3 (Ref.eq),4.500,R,ugm-3 (BAM)
07-01-2023,16:00,10.628,R,ugm-3 (Ref.eq),5.500,R,ugm-3 (BAM)
07-01-2023,17:00,18.358,R,ugm-3 (Ref.eq),6.500,R,ugm-3 (BAM)
07-01-2023,18:00,27.054,R,ugm-3 (Ref.eq),9.500,R,ugm-3 (BAM)
07-01-2023,19:00,26.087,R,ugm-3 (Ref.eq),13.500,R,ugm-3 (BAM)
07-01-2023,20:00,28.986,R,ugm-3 (Ref.eq),11.500,R,ugm-3 (BAM)
07-01-2023,21:00,26.087,R,ugm-3 (Ref.eq),9.500,R,ugm-3 (BAM)
07-01-2023,22:00,28.986,R,ugm-3 (Ref.eq),12.500,R,ugm-3 (BAM)
07-01-2023,23:00,28.986,R,ugm-3 (Ref.eq),10.500,R,ugm-3 (BAM)
07-01-2023,24:00,18.358,R,ugm-3 (Ref.eq),7.500,R,ugm-3 (BAM)
08-01-2023,01:00,17.392,R,ugm-3 (Ref.eq),6.500,R,ugm-3 (BAM)
08-01-2023,02:00,10.628,R,ugm-3 (Ref.eq),2.500,R,ugm-3 (BAM)
08-01-2023,03:00,16.425,R,ugm-3 (Ref.eq),2.500,R,ugm-3 (BAM)
08-01-2023,04:00,11.594,R,ugm-3 (Ref.eq),3.500,R,ugm-3 (BAM)
08-01-2023,05:00,14.493,R,ugm-3 (Ref.eq),3.500,R,ugm-3 (BAM)
08-01-2023,06:00,14.493,R,ugm-3 (Ref.eq),3.500,R,ugm-3 (BAM)
08-01-2023,07:00,16.425,R,ugm-3 (Ref.eq),7.500,R,ugm-3 (BAM)
08-01-2023,08:00,15.459,R,ugm-3 (Ref.eq),7.500,R,ugm-3 (BAM)
08-01-2023,09:00,16.425,R,ugm-3 (Ref.eq),5.500,R,ugm-3 (BAM)
08-01-2023,10:00,9.662,R,ugm-3 (Ref.eq),3.500,R,ugm-3 (BAM)
08-01-2023,11:00,5.797,R,ugm-3 (Ref.eq),2.500,R,ugm-3 (BAM)
08-01-2023,12:00,10.628,R,ugm-3 (Ref.eq),2.500,R,ugm-3 (BAM)
08-01-2023,13:00,6.763,R,ugm-3 (Ref.eq),3.500,R,ugm-3 (BAM)
08-01-2023,14:00,15.459,R,ugm-3 (Ref.eq),6.500,R,ugm-3 (BAM)
08-01-2023,15:00,8.696,R,ugm-3 (Ref.eq),5.500,R,ugm-3 (BAM)
08-01-2023,16:00,21.256,R,ugm-3 (Ref.eq),4.500,R,ugm-3 (BAM)
08-01-2023,17:00,20.290,R,ugm-3 (Ref.eq),7.500,R,ugm-3 (BAM)
08-01-2023,18:00,9.662,R,ugm-3 (Ref.eq),7.500,R,ugm-3 (BAM)
08-01-2023,19:00,17.392,R,ugm-3 (Ref.eq),6.500,R,ugm-3 (BAM)
08-01-2023,20:00,7.730,R,ugm-3 (Ref.eq),7.500,R,ugm-3 (BAM)
08-01-2023,21:00,12.561,R,ugm-3 (Ref.eq),5.500,R,ugm-3 (BAM)
08-01-2023,22:00,13.527,R,ugm-3 (Ref.eq),2.500,R,ugm-3 (BAM)
08-01-2023,23:00,12.561,R,ugm-3 (Ref.eq),6.500,R,ugm-3 (BAM)
08-01-2023,24:00,13.527,R,ugm-3 (Ref.eq),4.500,R,ugm-3 (BAM)
09-01-2023,01:00,11.594,R,ugm-3 (Ref.eq),1.500,R,ugm-3 (BAM)
09-01-2023,02:00,14.493,R,ugm-3 (Ref.eq),3.500,R,ugm-3 (BAM)
09-01-2023,03:00,17.392,R,ugm-3 (Ref.eq),5.500,R,ugm-3 (BAM)
09-01-2023,04:00,9.662,R,ugm-3 (Ref.eq),4.500,R,ugm-3 (BAM)
09-01-2023,05:00,15.459,R,ugm-3 (Ref.eq),3.500,R,ugm-3 (BAM)
09-01-2023,06:00,13.527,R,ugm-3 (Ref.eq),4.500,R,ugm-3 (BAM)
09-01-2023,07:00,16.425,R,ugm-3 (Ref.eq),5.500,R,ugm-3 (BAM)
09-01-2023,08:00,14.493,R,ugm-3 (Ref.eq),6.500,R,ugm-3 (BAM)
09-01-2023,09:00,16.425,R,ugm-3 (Ref.eq),6.500,R,ugm-3 (BAM)
09-01-2023,10:00,17.392,R,ugm-3 (Ref.eq),12.500,R,ugm-3 (BAM)
09-01-2023,11:00,15.459,R,ugm-3 (Ref.eq),9.500,R,ugm-3 (BAM)
09-01-2023,12:00,19.324,R,ugm-3 (Ref.eq),6.500,R,ugm-3 (BAM)
09-01-2023,13:00,19.324,R,ugm-3 (Ref.eq),11.500,R,ugm-3 (BAM)
09-01-2023,14:00,24.155,R,ugm-3 (Ref.eq),9.500,R,ugm-3 (BAM)
09-01-2023,15:00,16.425,R,ugm-3 (Ref.eq),5.500,R,ugm-3 (BAM)
09-01-2023,16:00,25.121,R,ugm-3 (Ref.eq),8.500,R,ugm-3 (BAM)
09-01-2023,17:00,29.952,R,ugm-3 (Ref.eq),9.500,R,ugm-3 (BAM)
09-01-2023,18:00,20.290,R,ugm-3 (Ref.eq),7.500,R,ugm-3 (BAM)
09-01-2023,19:00,18.358,R,ugm-3 (Ref.eq),9.500,R,ugm-3 (BAM)
09-01-2023,20:00,19.324,R,ugm-3 (Ref.eq),8.500,R,ugm-3 (BAM)
09-01-2023,21:00,21.256,R,ugm-3 (Ref.eq),8.500,R,ugm-3 (BAM)
09-01-2023,22:00,23.189,R,ugm-3 (Ref.eq),13.500,R,ugm-3 (BAM)
09-01-2023,23:00,21.256,R,ugm-3 (Ref.eq),13.500,R,ugm-3 (BAM)
09-01-2023,24:00,20.290,R,ugm-3 (Ref.eq),10.500,R,ugm-3 (BAM)
10-01-2023,01:00,26.087,R,ugm-3 (Ref.eq),8.500,R,ugm-3 (BAM)
10-01-2023,02:00,34.783,R,ugm-3 (Ref.eq),7.500,R,ugm-3 (BAM)
10-01-2023,03:00,9.662,R,ugm-3 (Ref.eq),7.500,R,ugm-3 (BAM)
10-01-2023,04:00,9.662,R,ugm-3 (Ref.eq),6.500,R,ugm-3 (BAM)
10-01-2023,05:00,4.831,R,ugm-3 (Ref.eq),3.500,R,ugm-3 (BAM)
10-01-2023,06:00,0.966,R,ugm-3 (Ref.eq),2.500,R,ugm-3 (BAM)
10-01-2023,07:00,16.425,R,ugm-3 (Ref.eq),4.500,R,ugm-3 (BAM)
10-01-2023,08:00,22.223,R,ugm-3 (Ref.eq),4.500,R,ugm-3 (BAM)
10-01-2023,09:00,32.851,R,ugm-3 (Ref.eq),8.500,R,ugm-3 (BAM)
10-01-2023,10:00,38.648,R,ugm-3 (Ref.eq),9.500,R,ugm-3 (BAM)
10-01-2023,11:00,37.682,R,ugm-3 (Ref.eq),9.500,R,ugm-3 (BAM)
10-01-2023,12:00,33.817,R,ugm-3 (Ref.eq),10.500,R,ugm-3 (BAM)
10-01-2023,13:00,36.716,R,ugm-3 (Ref.eq),,,
10-01-2023,14:00,,,,,,
10-01-2023,15:00,,,,,,
10-01-2023,16:00,,,,,,
10-01-2023,17:00,,,,,,
10-01-2023,18:00,,,,,,
10-01-2023,19:00,,,,,,
10-01-2023,20:00,,,,,,
10-01-2023,21:00,,,,,,
10-01-2023,22:00,,,,,,
10-01-2023,23:00,,,,,,
10-01-2023,24:00,,,,,,
11-01-2023,01:00,,,,,,
11-01-2023,02:00,,,,,,
11-01-2023,03:00,,,,,,
11-01-2023,04:00,,,,,,
11-01-2023,05:00,,,,,,
11-01-2023,06:00,,,,,,
11-01-2023,07:00,,,,,,
11-01-2023,08:00,,,,,,
11-01-2023,09:00,,,,,,
11-01-2023,10:00,,,,,,
11-01-2023,11:00,,,,,,
11-01-2023,12:00,,,,,,
11-01-2023,13:00,,,,,,
11-01-2023,14:00,,,,,,
11-01-2023,15:00,,,,,,
11-01-2023,16:00,,,,,,
11-01-2023,17:00,,,,,,
11-01-2023,18:00,,,,,,
11-01-2023,19:00,,,,,,
11-01-2023,20:00,,,,,,
11-01-2023,21:00,,,,,,
11-01-2023,22:00,,,,,,
11-01-2023,23:00,,,,,,
11-01-2023,24:00,,,,,,
12-01-2023,01:00,,,,,,
12-01-2023,02:00,,,,,,
12-01-2023,03:00,,,,,,
12-01-2023,04:00,,,,,,
12-01-2023,05:00,,,,,,
12-01-2023,06:00,,,,,,
12-01-2023,07:00,,,,,,
12-01-2023,08:00,,,,,,
12-01-2023,09:00,,,,,,
12-01-2023,10:00,,,,,,
12-01-2023,11:00,,,,,,
12-01-2023,12:00,,,,,,
12-01-2023,13:00,,,,,,
12-01-2023,14:00,,,,,,
12-01-2023,15:00,,,,,,
12-01-2023,16:00,,,,,,
12-01-2023,17:00,,,,,,
12-01-2023,18:00,,,,,,
12-01-2023,19:00,,,,,,
12-01-2023,20:00,,,,,,
12-01-2023,21:00,,,,,,
12-01-2023,22:00,,,,,,
12-01-2023,23:00,,,,,,
12-01-2023,24:00,,,,,,
13-01-2023,01:00,,,,,,
13-01-2023,02:00,,,,,,
13-01-2023,03:00,,,,,,
13-01-2023,04:00,,,,,,
13-01-2023,05:00,,,,,,
13-01-2023,06:00,,,,,,
13-01-2023,07:00,,,,,,
13-01-2023,08:00,,,,,,
13-01-2023,09:00,,,,,,
13-01-2023,10:00,,,,,,
13-01-2023,11:00,,,,,,
13-01-2023,12:00,,,,,,
13-01-2023,13:00,,,,,,
13-01-2023,14:00,,,,13.500,R,ugm-3 (BAM)
13-01-2023,15:00,13.527,R,ugm-3 (Ref.eq),10.500,R,ugm-3 (BAM)
13-01-2023,16:00,16.425,R,ugm-3 (Ref.eq),12.500,R,ugm-3 (BAM)
13-01-2023,17:00,16.425,R,ugm-3 (Ref.eq),10.500,R,ugm-3 (BAM)
13-01-2023,18:00,29.952,R,ugm-3 (Ref.eq),6.500,R,ugm-3 (BAM)
13-01-2023,19:00,28.020,R,ugm-3 (Ref.eq),11.500,R,ugm-3 (BAM)
13-01-2023,20:00,13.527,R,ugm-3 (Ref.eq),10.500,R,ugm-3 (BAM)
13-01-2023,21:00,24.155,R,ugm-3 (Ref.eq),8.500,R,ugm-3 (BAM)
13-01-2023,22:00,20.290,R,ugm-3 (Ref.eq),8.500,R,ugm-3 (BAM)
13-01-2023,23:00,16.425,R,ugm-3 (Ref.eq),6.500,R,ugm-3 (BAM)
13-01-2023,24:00,12.561,R,ugm-3 (Ref.eq),6.500,R,ugm-3 (BAM)
14-01-2023,01:00,17.392,R,ugm-3 (Ref.eq),5.500,R,ugm-3 (BAM)
14-01-2023,02:00,18.358,R,ugm-3 (Ref.eq),5.500,R,ugm-3 (BAM)
14-01-2023,03:00,23.189,R,ugm-3 (Ref.eq),6.500,R,ugm-3 (BAM)
14-01-2023,04:00,21.256,R,ugm-3 (Ref.eq),9.500,R,ugm-3 (BAM)
14-01-2023,05:00,19.324,R,ugm-3 (Ref.eq),9.500,R,ugm-3 (BAM)
14-01-2023,06:00,5.797,R,ugm-3 (Ref.eq),7.500,R,ugm-3 (BAM)
14-01-2023,07:00,6.763,R,ugm-3 (Ref.eq),5.500,R,ugm-3 (BAM)
14-01-2023,08:00,5.797,R,ugm-3 (Ref.eq),5.500,R,ugm-3 (BAM)
14-01-2023,09:00,2.899,R,ugm-3 (Ref.eq),7.500,R,ugm-3 (BAM)
14-01-2023,10:00,2.899,R,ugm-3 (Ref.eq),4.500,R,ugm-3 (BAM)
14-01-2023,11:00,2.899,R,ugm-3 (Ref.eq),1.500,R,ugm-3 (BAM)
14-01-2023,12:00,3.865,R,ugm-3 (Ref.eq),3.500,R,ugm-3 (BAM)
14-01-2023,13:00,9.662,R,ugm-3 (Ref.eq),4.500,R,ugm-3 (BAM)
14-01-2023,14:00,11.594,R,ugm-3 (Ref.eq),5.500,R,ugm-3 (BAM)
14-01-2023,15:00,20.290,R,ugm-3 (Ref.eq),4.500,R,ugm-3 (BAM)
14-01-2023,16:00,18.358,R,ugm-3 (Ref.eq),4.500,R,ugm-3 (BAM)
14-01-2023,17:00,9.662,R,ugm-3 (Ref.eq),5.500,R,ugm-3 (BAM)
14-01-2023,18:00,17.392,R,ugm-3 (Ref.eq),8.500,R,ugm-3 (BAM)
14-01-2023,19:00,11.594,R,ugm-3 (Ref.eq),7.500,R,ugm-3 (BAM)
14-01-2023,20:00,14.493,R,ugm-3 (Ref.eq),4.500,R,ugm-3 (BAM)
14-01-2023,21:00,7.730,R,ugm-3 (Ref.eq),4.500,R,ugm-3 (BAM)
14-01-2023,22:00,8.696,R,ugm-3 (Ref.eq),5.500,R,ugm-3 (BAM)
14-01-2023,23:00,6.763,R,ugm-3 (Ref.eq),2.500,R,ugm-3 (BAM)
14-01-2023,24:00,6.763,R,ugm-3 (Ref.eq),2.500,R,ugm-3 (BAM)
15-01-2023,01:00,5.797,R,ugm-3 (Ref.eq),3.500,R,ugm-3 (BAM)
15-01-2023,02:00,6.763,R,ugm-3 (Ref.eq),1.500,R,ugm-3 (BAM)
15-01-2023,03:00,9.662,R,ugm-3 (Ref.eq),6.500,R,ugm-3 (BAM)
15-01-2023,04:00,11.594,R,ugm-3 (Ref.eq),7.500,R,ugm-3 (BAM)
15-01-2023,05:00,13.527,R,ugm-3 (Ref.eq),4.500,R,ugm-3 (BAM)
15-01-2023,06:00,7.730,R,ugm-3 (Ref.eq),2.500,R,ugm-3 (BAM)
15-01-2023,07:00,5.797,R,ugm-3 (Ref.eq),2.500,R,ugm-3 (BAM)
15-01-2023,08:00,9.662,R,ugm-3 (Ref.eq),4.500,R,ugm-3 (BAM)
15-01-2023,09:00,5.797,R,ugm-3 (Ref.eq),2.500,R,ugm-3 (BAM)
15-01-2023,10:00,6.763,R,ugm-3 (Ref.eq),0.500,R,ugm-3 (BAM)
15-01-2023,11:00,7.730,R,ugm-3 (Ref.eq),3.500,R,ugm-3 (BAM)
15-01-2023,12:00,6.763,R,ugm-3 (Ref.eq),3.500,R,ugm-3 (BAM)
15-01-2023,13:00,8.696,R,ugm-3 (Ref.eq),1.500,R,ugm-3 (BAM)
15-01-2023,14:00,5.797,R,ugm-3 (Ref.eq),1.500,R,ugm-3 (BAM)
15-01-2023,15:00,14.493,R,ugm-3 (Ref.eq),4.500,R,ugm-3 (BAM)
15-01-2023,16:00,8.696,R,ugm-3 (Ref.eq),6.500,R,ugm-3 (BAM)
15-01-2023,17:00,14.493,R,ugm-3 (Ref.eq),2.500,R,ugm-3 (BAM)
15-01-2023,18:00,11.594,R,ugm-3 (Ref.eq),8.500,R,ugm-3 (BAM)
15-01-2023,19:00,16.425,R,ugm-3 (Ref.eq),8.500,R,ugm-3 (BAM)
15-01-2023,20:00,5.797,R,ugm-3 (Ref.eq),4.500,R,ugm-3 (BAM)
15-01-2023,21:00,6.763,R,ugm-3 (Ref.eq),6.500,R,ugm-3 (BAM)
15-01-2023,22:00,4.831,R,ugm-3 (Ref.eq),4.500,R,ugm-3 (BAM)
15-01-2023,23:00,0.966,R,ugm-3 (Ref.eq),0.500,R,ugm-3 (BAM)
15-01-2023,24:00,-0.966,R,ugm-3 (Ref.eq),0.500,R,ugm-3 (BAM)
16-01-2023,01:00,0.000,R,ugm-3 (Ref.eq),2.500,R,ugm-3 (BAM)
16-01-2023,02:00,1.932,R,ugm-3 (Ref.eq),7.500,R,ugm-3 (BAM)
16-01-2023,03:00,12.561,R,ugm-3 (Ref.eq),7.500,R,ugm-3 (BAM)
16-01-2023,04:00,14.493,R,ugm-3 (Ref.eq),5.500,R,ugm-3 (BAM)
16-01-2023,05:00,7.730,R,ugm-3 (Ref.eq),3.500,R,ugm-3 (BAM)
16-01-2023,06:00,6.763,R,ugm-3 (Ref.eq),5.500,R,ugm-3 (BAM)
16-01-2023,07:00,4.831,R,ugm-3 (Ref.eq),7.500,R,ugm-3 (BAM)
16-01-2023,08:00,6.763,R,ugm-3 (Ref.eq),4.500,R,ugm-3 (BAM)
16-01-2023,09:00,9.662,R,ugm-3 (Ref.eq),5.500,R,ugm-3 (BAM)
16-01-2023,10:00,10.628,R,ugm-3 (Ref.eq),5.500,R,ugm-3 (BAM)
16-01-2023,11:00,5.797,R,ugm-3 (Ref.eq),4.500,R,ugm-3 (BAM)
16-01-2023,12:00,9.662,R,ugm-3 (Ref.eq),4.500,R,ugm-3 (BAM)
16-01-2023,13:00,8.696,R,ugm-3 (Ref.eq),2.500,R,ugm-3 (BAM)
16-01-2023,14:00,13.527,R,ugm-3 (Ref.eq),1.500,R,ugm-3 (BAM)
16-01-2023,15:00,14.493,R,ugm-3 (Ref.eq),1.500,R,ugm-3 (BAM)
16-01-2023,16:00,16.425,R,ugm-3 (Ref.eq),1.500,R,ugm-3 (BAM)
16-01-2023,17:00,28.986,R,ugm-3 (Ref.eq),6.500,R,ugm-3 (BAM)
16-01-2023,18:00,41.547,R,ugm-3 (Ref.eq),33.500,R,ugm-3 (BAM)
16-01-2023,19:00,29.952,R,ugm-3 (Ref.eq),22.500,R,ugm-3 (BAM)
16-01-2023,20:00,33.817,R,ugm-3 (Ref.eq),30.500,R,ugm-3 (BAM)
16-01-2023,21:00,18.358,R,ugm-3 (Ref.eq),13.500,R,ugm-3 (BAM)
16-01-2023,22:00,13.527,R,ugm-3 (Ref.eq),11.500,R,ugm-3 (BAM)
16-01-2023,23:00,11.594,R,ugm-3 (Ref.eq),7.500,R,ugm-3 (BAM)
16-01-2023,24:00,9.662,R,ugm-3 (Ref.eq),5.500,R,ugm-3 (BAM)
17-01-2023,01:00,7.730,R,ugm-3 (Ref.eq),1.500,R,ugm-3 (BAM)
17-01-2023,02:00,3.865,R,ugm-3 (Ref.eq),,,
17-01-2023,03:00,2.899,R,ugm-3 (Ref.eq),3.500,R,ugm-3 (BAM)
17-01-2023,04:00,1.932,R,ugm-3 (Ref.eq),4.500,R,ugm-3 (BAM)
17-01-2023,05:00,0.966,R,ugm-3 (Ref.eq),2.500,R,ugm-3 (BAM)
17-01-2023,06:00,1.932,R,ugm-3 (Ref.eq),2.500,R,ugm-3 (BAM)
17-01-2023,07:00,6.763,R,ugm-3 (Ref.eq),2.500,R,ugm-3 (BAM)
17-01-2023,08:00,9.662,R,ugm-3 (Ref.eq),3.500,R,ugm-3 (BAM)
17-01-2023,09:00,13.527,R,ugm-3 (Ref.eq),5.500,R,ugm-3 (BAM)
17-01-2023,10:00,11.594,R,ugm-3 (Ref.eq),5.500,R,ugm-3 (BAM)
17-01-2023,11:00,6.763,R,ugm-3 (Ref.eq),4.500,R,ugm-3 (BAM)
17-01-2023,12:00,5.797,R,ugm-3 (Ref.eq),3.500,R,ugm-3 (BAM)
17-01-2023,13:00,9.662,R,ugm-3 (Ref.eq),3.500,R,ugm-3 (BAM)
17-01-2023,14:00,10.628,R,ugm-3 (Ref.eq),3.500,R,ugm-3 (BAM)
17-01-2023,15:00,7.730,R,ugm-3 (Ref.eq),6.500,R,ugm-3 (BAM)
17-01-2023,16:00,12.561,R,ugm-3 (Ref.eq),9.500,R,ugm-3 (BAM)
17-01-2023,17:00,15.459,R,ugm-3 (Ref.eq),10.500,R,ugm-3 (BAM)
17-01-2023,18:00,17.392,R,ugm-3 (Ref.eq),9.500,R,ugm-3 (BAM)
17-01-2023,19:00,21.256,R,ugm-3 (Ref.eq),17.500,R,ugm-3 (BAM)
17-01-2023,20:00,12.561,R,ugm-3 (Ref.eq),13.500,R,ugm-3 (BAM)
17-01-2023,21:00,17.392,R,ugm-3 (Ref.eq),10.500,R,ugm-3 (BAM)
17-01-2023,22:00,14.493,R,ugm-3 (Ref.eq),9.500,R,ugm-3 (BAM)
17-01-2023,23:00,22.223,R,ugm-3 (Ref.eq),17.500,R,ugm-3 (BAM)
17-01-2023,24:00,12.561,R,ugm-3 (Ref.eq),12.500,R,ugm-3 (BAM)
18-01-2023,01:00,9.662,R,ugm-3 (Ref.eq),12.500,R,ugm-3 (BAM)
18-01-2023,02:00,14.493,R,ugm-3 (Ref.eq),10.500,R,ugm-3 (BAM)
18-01-2023,03:00,4.831,R,ugm-3 (Ref.eq),6.500,R,ugm-3 (BAM)
18-01-2023,04:00,3.865,R,ugm-3 (Ref.eq),5.500,R,ugm-3 (BAM)
18-01-2023,05:00,4.831,R,ugm-3 (Ref.eq),7.500,R,ugm-3 (BAM)
18-01-2023,06:00,3.865,R,ugm-3 (Ref.eq),7.500,R,ugm-3 (BAM)
18-01-2023,07:00,3.865,R,ugm-3 (Ref.eq),4.500,R,ugm-3 (BAM)
18-01-2023,08:00,4.831,R,ugm-3 (Ref.eq),2.500,R,ugm-3 (BAM)
18-01-2023,09:00,4.831,R,ugm-3 (Ref.eq),3.500,R,ugm-3 (BAM)
18-01-2023,10:00,5.797,R,ugm-3 (Ref.eq),5.500,R,ugm-3 (BAM)
18-01-2023,11:00,10.628,R,ugm-3 (Ref.eq),3.500,R,ugm-3 (BAM)
18-01-2023,12:00,11.594,R,ugm-3 (Ref.eq),3.500,R,ugm-3 (BAM)
18-01-2023,13:00,5.797,R,ugm-3 (Ref.eq),4.500,R,ugm-3 (BAM)
18-01-2023,14:00,8.696,R,ugm-3 (Ref.eq),4.500,R,ugm-3 (BAM)
18-01-2023,15:00,14.493,R,ugm-3 (Ref.eq),6.500,R,ugm-3 (BAM)
18-01-2023,16:00,13.527,R,ugm-3 (Ref.eq),6.500,R,ugm-3 (BAM)
18-01-2023,17:00,7.730,R,ugm-3 (Ref.eq),6.500,R,ugm-3 (BAM)
18-01-2023,18:00,5.797,R,ugm-3 (Ref.eq),7.500,R,ugm-3 (BAM)
18-01-2023,19:00,5.797,R,ugm-3 (Ref.eq),7.500,R,ugm-3 (BAM)
18-01-2023,20:00,7.730,R,ugm-3 (Ref.eq),6.500,R,ugm-3 (BAM)
18-01-2023,21:00,9.662,R,ugm-3 (Ref.eq),6.500,R,ugm-3 (BAM)
18-01-2023,22:00,6.763,R,ugm-3 (Ref.eq),7.500,R,ugm-3 (BAM)
18-01-2023,23:00,5.797,R,ugm-3 (Ref.eq),7.500,R,ugm-3 (BAM)
18-01-2023,24:00,4.831,R,ugm-3 (Ref.eq),5.500,R,ugm-3 (BAM)
19-01-2023,01:00,7.730,R,ugm-3 (Ref.eq),4.500,R,ugm-3 (BAM)
19-01-2023,02:00,6.763,R,ugm-3 (Ref.eq),2.500,R,ugm-3 (BAM)